Location: Unspecified
(0.0000°N, 0.0000°E)
Time: 03:21:04
(UTC+00:00)

Vanguard 2 - Pass Details

Date: 17 December 2017
Orbit: 553 x 2939 km, 32.9° (Epoch: 21 July)

Event Time Altitude Azimuth Distance (km) Brightness Sun altitude
Rises 07:07:58 0° 220° (SW) 6,277 12.0 16.4°
Reaches altitude 10° 07:12:47 10° 210° (SSW) 5,501 11.9 17.5°
Maximum altitude 07:27:21 32° 153° (SSE) 4,217 12.3 20.8°
Drops below altitude 10° 07:41:24 10° 97° (E) 5,367 13.3 24.0°
Sets 07:45:55 0° 87° (E) 6,117 13.1 25.0°
